Starlink 32324

operational
NORAD ID: 61863 Int'l Des: 2024-202 Owner: SPXS Country: US Constellation: starlink
LEOCIRCULAR

About Starlink 32324

Description loading...

Live Position

Loading 3D Globe...

Upcoming Passes

Altitude History

Altitude vs Time

uPlot chart will show altitude changes over time

Two-Line Element Set

1 61863U 24202U 25352.92769713 .00003164 00000-0 12436-3 0 9998
2 61863 42.9979 334.3021 0000229 161.6771 198.4089 15.27595407 62972
Epoch: Dec 18, 2025 • Age: 7 hours

Current Status

Altitude 494.6 km
Velocity 7.62 km/s
Sub-Earth Point -38.98°S, 39.91°E
Launch Date Nov 7, 2024
Age 1.1 years
Type internet

Technical Details

Classification Payload
Mass 730.00 kg
Dry Mass 700.00 kg
Total Mass 730.00 kg
Length 0.30 m
Diameter 4.10 m
Span 29.00 m
Shape Box + pan
Manufacturer SPXS
Bus Type Starlink V2M
Phase Status In Orbit
Owner/State SPXS/US

Large Constellations

Loading constellations...